Location: LDNL
(36.4545°S, 141.6685°E)
Time: 03:29:24
(UTC+11:00)

A-11 Canister half - Pass Details

Date: 15 August 2022
Orbit: 1524 x 1684 km, 47.3° (Epoch: 05 October)

Event Time Altitude Azimuth Distance (km) Brightness Sun altitude
Rises 20:13:21 0° 253° (WSW) 4,693 12.7 -27.4°
Reaches altitude 10° 20:16:38 10° 245° (WSW) 3,708 11.8 -28.0°
Maximum altitude 20:25:27 44° 175° (S) 2,041 9.5 -29.8°
Enters shadow 20:27:43 38° 143° (SE) 2,199 9.5 -30.2°
Drops below altitude 10° 20:34:21 10° 105° (ESE) 3,751 - -31.6°
Sets 20:37:42 0° 98° (E) 4,752 - -32.2°
